Temperature
19 19 19 19 19 18 18 18 17 18 18 18 18 18 18 18 18 18 18 18 18 18 18 18 18 18 18 19 18 18 18 18 18 18 18 18 18 18 17 17 17 16 16
19 19 19 19 18 18 17 16 17 17 17 17 17 18 18 18 18 18 18 18 18 18 18 18 19 19 18 19 18 18 18 18 18 18 18 18 18 18 18 17 17 17 16
18 18 18 18 18 17 17 17 17 17 17 18 18 18 18 18 18 18 18 18 19 19 19 19 18 18 19 19 19 18 18 18 18 18 18 18 18 18 17 17 17 17 16
18 18 18 17 17 17 17 17 18 17 17 18 19 19 18 18 17 18 18 18 18 19 19 19 18 18 18 19 18 19 18 18 18 18 18 18 18 18 17 17 17 17 16
17 17 17 17 17 17 17 17 17 17 18 18 18 18 18 17 17 17 18 18 18 18 19 19 19 19 18 18 18 18 18 18 18 18 18 18 17 18 17 17 17 17 17
17 17 17 17 17 17 17 17 17 17 17 18 18 18 17 17 17 17 17 18 18 18 18 18 18 18 19 18 18 18 18 18 18 18 18 18 17 17 18 17 17 17 17
17 17 17 17 17 17 17 17 17 17 17 17 17 17 17 17 17 17 17 17 18 18 18 18 18 18 19 19 18 18 18 18 18 18 18 17 17 17 17 17 17 17 17
16 16 16 16 16 17 17 17 16 16 16 16 16 16 16 16 17 18 18 18 18 18 18 18 19 19 19 18 18 18 17 17 17 18 18 17 17 17 17 17 17 17 17
16 16 16 16 16 17 16 16 16 16 16 15 16 16 16 16 17 17 17 17 17 17 18 18 18 17 17 17 17 17 17 17 17 17 17 17 17 17 17 17 17 17 17
15 15 15 16 16 16 16 16 16 15 15 15 16 16 16 16 16 16 16 16 16 16 17 17 16 16 17 17 17 17 17 16 17 17 17 17 17 17 17 17 16 16 17
15 15 15 15 14 14 15 15 14 14 15 15 15 16 16 16 15 14 14 15 16 16 16 16 16 16 16 16 16 17 17 16 16 16 16 16 17 17 16 16 16 16 16
15 15 14 14 13 13 14 14 13 14 15 15 15 15 15 15 15 14 14 14 15 15 15 16 16 16 16 17 16 16 15 15 16 16 16 16 16 16 16 16 16 16 16
14 13 13 13 13 13 13 13 14 15 15 15 14 14 15 15 14 14 14 13 14 14 14 15 16 16 15 15 15 14 14 15 15 16 16 16 16 16 16 16 16 16 16
13 13 13 13 13 13 13 13 14 14 14 14 14 14 14 14 14 13 13 13 13 13 13 14 15 15 15 14 14 14 15 15 15 15 16 16 16 16 15 15 16 16 16
13 13 13 12 12 13 13 14 14 14 14 14 14 14 13 13 13 13 13 14 13 13 13 13 14 14 14 14 14 14 15 15 15 15 15 15 15 15 15 15 15 15 15
13 13 12 12 12 13 13 14 14 13 13 13 13 13 13 13 13 13 13 14 14 14 13 13 13 13 14 14 13 14 14 15 15 15 15 15 15 15 14 14 14 14 14
13 13 13 12 12 12 13 13 13 12 12 13 13 13 13 13 13 13 13 13 14 14 14 13 13 13 13 13 13 13 14 14 15 15 15 15 14 13 13 13 13 13 13
13 13 12 12 11 11 12 12 12 12 12 12 13 13 12 13 13 13 13 13 14 14 14 13 13 13 13 12 12 13 14 14 14 13 13 13 13 13 13 12 12 13 13
13 13 12 12 11 11 11 11 11 12 12 12 12 12 12 13 12 13 13 13 13 13 13 14 13 13 13 12 12 13 13 13 13 13 13 13 13 12 12 12 13 13 13
13 13 12 12 11 11 11 11 11 12 12 12 12 12 12 13 13 13 13 13 13 13 13 13 13 12 12 12 12 12 12 12 12 12 12 12 12 12 12 12 12 13 13
13 12 12 11 11 11 11 11 11 12 12 12 12 12 12 12 12 12 13 13 13 13 13 13 12 12 12 12 12 12 12 12 12 12 12 12 12 12 12 12 12 12 12
12 12 12 11 11 11 11 11 11 11 11 11 11 12 12 12 12 13 13 13 13 13 13 13 12 12 12 12 12 11 11 11 11 11 11 11 12 11 11 11 11 11 11
12 12 12 11 11 11 11 11 11 11 11 11 11 12 12 12 12 12 12 12 12 12 12 12 12 12 11 11 11 11 11 11 10 11 11 11 11 11 11 11 11 11 11
13 12 12 11 11 11 11 11 11 11 11 12 12 12 12 11 11 12 12 12 12 11 11 11 11 11 11 11 11 11 11 10 10 10 11 10 11 10 10 10 9 10 10
12 12 12 12 11 11 11 11 11 11 11 11 11 11 11 11 11 11 12 12 11 11 11 11 11 10 10 10 10 10 10 10 9 10 10 10 10 10 9 9 9 9 9
12 12 12 12 12 12 12 12 11 11 11 11 11 11 11 11 11 11 11 11 11 11 10 10 10 10 10 10 10 9 9 9 9 9 9 9 9 9 9 9 9 9 9
Wind_Speed
8 6 9 9 8 8 8 7 6 8 7 11 12 12 12 13 14 14 15 19 20 21 20 19 19 19 19 20 21 22 22 23 25 25 26 26 26 26 25 25 24 24 24
8 9 10 7 7 8 3 2 6 10 10 8 10 11 13 13 14 15 14 16 18 19 20 19 19 19 20 21 22 21 22 23 25 26 26 26 26 26 26 26 27 26 26
11 8 11 8 6 3 10 14 14 11 9 6 9 10 11 13 13 14 14 13 14 16 18 18 20 20 21 22 23 24 23 23 24 25 27 27 26 26 26 26 26 27 27
15 10 9 9 8 11 13 12 11 9 5 4 8 11 10 11 11 11 12 12 12 12 13 16 19 20 22 23 23 24 26 25 25 24 26 27 26 26 25 24 25 25 26
14 9 9 9 9 7 10 11 12 10 7 9 12 12 10 9 10 9 10 11 13 14 13 14 16 19 22 23 24 24 25 25 27 26 26 27 27 26 25 25 25 25 26
7 7 7 8 8 6 7 9 11 10 10 12 11 11 9 10 8 8 10 10 11 13 15 14 14 15 19 21 23 23 26 25 26 27 27 27 28 27 26 25 24 24 26
6 5 6 7 7 7 8 8 8 9 9 7 5 7 8 10 10 10 10 10 10 12 13 13 14 15 15 18 20 24 26 25 25 26 27 26 26 27 26 25 24 25 26
7 5 6 7 7 7 9 9 8 5 5 7 6 5 6 7 7 8 8 8 9 8 11 12 13 14 15 14 15 19 22 24 26 25 25 27 25 26 26 26 24 25 25
6 6 8 8 9 8 9 10 10 10 8 6 9 7 4 6 2 3 4 6 7 6 8 9 9 12 14 13 13 14 14 19 19 18 20 23 23 24 25 25 24 24 23
8 8 9 10 10 9 10 10 11 10 10 8 7 9 9 5 4 4 3 4 4 5 6 5 6 5 7 7 7 5 8 9 8 7 10 15 19 20 21 23 26 25 22
7 8 9 10 11 9 10 11 11 10 9 9 7 5 6 6 6 7 6 3 3 4 3 4 3 1 1 2 2 1 1 5 5 5 5 4 6 8 12 15 20 21 22
7 8 8 8 10 9 10 10 10 11 10 9 8 7 6 6 5 5 7 6 5 2 0 1 1 4 4 7 5 4 7 11 8 8 8 6 5 4 4 3 6 14 19
8 9 9 9 9 9 9 9 9 9 10 10 9 7 8 8 5 6 7 6 5 3 1 2 3 4 4 6 6 7 11 12 11 10 8 6 6 6 7 7 6 4 7
7 9 10 10 11 9 8 8 8 8 7 8 9 7 5 5 5 6 6 6 4 3 2 1 2 4 5 6 7 11 12 14 12 10 7 5 4 6 7 6 5 5 6
6 8 10 11 12 11 9 8 8 9 7 8 8 7 6 6 7 9 9 9 7 4 3 3 2 4 4 5 10 11 9 11 12 10 7 4 4 6 8 9 8 7 6
5 7 9 11 13 11 10 8 8 8 7 5 5 5 6 8 11 11 11 9 6 5 3 2 2 3 4 7 11 11 9 12 14 11 9 9 9 9 10 9 8 7 7
5 7 9 10 11 12 10 8 5 4 3 3 4 2 2 2 2 4 6 6 4 4 6 3 3 2 4 7 8 9 10 9 11 14 14 14 13 12 11 10 10 9 8
5 7 8 8 10 10 9 8 8 7 6 6 8 7 6 7 6 6 5 5 4 6 7 6 2 3 6 5 7 7 7 8 9 14 14 14 14 14 13 11 11 10 9
5 6 6 5 7 7 8 9 9 10 9 8 7 6 4 5 4 5 3 6 7 7 6 9 5 4 5 4 5 6 6 5 6 10 11 11 12 11 9 9 9 9 9
5 4 4 3 4 5 6 7 8 8 7 8 5 3 2 4 3 3 5 9 10 10 9 10 8 5 5 5 4 3 4 4 5 5 6 7 8 9 9 8 8 9 9
5 3 1 1 2 3 4 5 5 4 4 8 4 4 4 6 5 5 7 10 11 10 8 9 8 5 4 4 3 2 2 2 3 4 3 4 4 5 7 8 9 10 10
6 5 3 2 1 1 3 4 1 2 3 6 2 6 8 10 13 15 17 15 10 10 8 6 5 6 3 3 3 2 2 2 1 4 3 4 5 5 6 8 11 12 12
8 7 6 5 4 4 5 5 2 3 3 2 6 6 6 5 9 11 13 15 14 11 8 7 7 5 3 2 3 2 2 2 2 4 3 3 4 5 6 10 15 16 16
9 9 9 9 7 7 8 6 6 4 5 6 6 5 6 5 5 9 10 10 10 9 7 6 7 5 3 3 2 3 2 2 2 3 4 3 4 3 4 7 15 17 16
9 9 9 10 9 9 12 12 11 6 5 7 5 4 5 5 5 9 12 11 10 10 11 13 13 11 11 8 3 2 2 2 2 3 5 3 3 3 2 3 8 15 18
9 10 10 10 11 10 13 17 14 8 7 5 4 4 5 7 8 8 12 12 11 6 7 8 9 10 11 11 11 6 3 3 2 2 5 4 4 3 2 2 5 9 12
Wind_Direction
225 231 240 237 237 246 248 253 258 252 244 245 245 247 252 248 246 247 251 255 256 258 252 242 246 248 246 241 233 230 227 225 224 223 221 219 219 219 220 221 220 219 218
224 219 233 226 231 248 284 108 262 255 249 244 247 242 248 251 246 246 248 253 252 251 251 249 245 241 241 241 240 234 229 224 224 223 222 222 222 221 221 221 222 221 221
233 234 236 233 223 241 290 284 274 259 243 240 255 253 247 247 244 242 243 250 255 251 247 249 251 245 238 237 240 240 233 230 226 223 224 223 223 225 225 223 222 221 222
245 242 247 252 237 219 221 234 250 251 237 239 264 258 248 244 244 241 240 244 253 257 251 250 253 253 252 250 243 238 232 234 233 226 224 224 224 225 225 223 221 220 221
253 248 253 261 260 234 213 216 228 221 211 222 238 247 246 241 242 245 243 242 246 253 257 255 252 254 256 257 252 249 242 236 235 230 225 226 227 226 224 222 220 219 222
255 255 258 264 270 260 237 221 231 218 211 217 228 244 246 245 243 241 245 246 245 250 253 257 263 263 256 256 258 254 250 242 238 232 231 230 227 226 223 222 220 219 225
306 289 283 281 279 271 265 246 239 234 225 213 226 253 257 247 242 240 237 238 243 249 255 255 258 262 262 258 257 253 245 242 239 234 233 232 228 228 223 221 218 217 221
314 304 292 289 281 277 269 256 239 238 225 192 204 232 257 257 244 244 237 234 240 249 260 260 257 257 258 260 255 250 244 244 242 241 235 237 235 229 225 223 217 217 218
311 303 300 296 287 275 265 256 244 236 243 221 216 224 227 231 248 254 239 236 244 254 260 260 263 264 258 256 260 254 249 248 245 246 249 249 244 237 227 223 219 217 216
325 322 315 306 293 283 275 263 247 238 235 237 224 231 240 219 213 260 254 239 233 251 264 270 275 273 249 242 247 271 266 254 257 261 267 262 249 237 231 226 229 225 217
314 313 314 302 295 286 279 270 257 244 237 235 224 217 229 227 217 233 255 249 240 246 267 273 253 223 119 67 20 18 148 92 55 31 16 336 274 245 236 231 233 227 224
311 309 308 313 309 299 295 290 274 255 247 241 234 213 214 219 209 207 227 239 243 239 49 340 92 51 54 64 58 79 78 67 53 46 43 41 37 39 41 2 261 232 229
321 319 320 318 312 302 294 292 287 272 256 249 244 232 229 228 207 200 218 234 225 200 138 53 49 55 52 58 46 82 80 70 57 52 50 51 53 63 66 60 29 344 253
300 304 310 307 297 294 293 294 289 277 267 257 244 233 225 215 209 214 211 221 214 180 154 153 32 68 65 49 89 88 74 70 61 55 53 56 73 81 79 77 67 37 28
298 308 314 314 308 301 294 293 286 280 271 258 247 244 246 233 218 226 221 215 204 174 174 184 156 89 88 81 83 82 76 64 57 51 42 60 83 90 89 81 70 59 45
299 310 321 323 323 322 319 308 289 285 277 270 272 273 269 253 237 226 215 196 181 151 137 137 87 89 77 82 83 74 72 57 44 46 56 86 87 89 84 76 66 51 40
300 314 323 326 332 338 350 354 353 324 295 324 329 306 28 350 227 188 157 139 130 115 120 85 42 67 82 98 97 79 69 65 54 54 65 78 87 91 89 79 70 61 52
303 312 318 334 341 348 3 18 37 40 22 32 35 47 55 46 32 57 90 102 116 112 128 127 100 79 82 92 96 88 77 64 55 54 60 71 81 89 93 86 76 64 53
299 311 316 347 342 359 30 40 49 49 51 50 41 46 42 73 29 40 79 105 109 98 101 111 100 72 83 90 95 81 63 54 56 56 55 58 67 75 81 75 59 50 42
284 304 315 343 341 4 49 59 59 52 60 65 33 46 57 80 90 132 144 123 115 108 108 107 102 90 82 73 86 93 93 68 53 47 52 42 46 51 51 49 38 27 16
249 259 259 356 356 9 56 72 76 72 75 73 11 52 83 92 95 117 125 117 114 111 110 106 103 97 84 78 81 80 96 92 68 25 41 35 27 42 34 36 28 18 10
221 220 200 177 118 143 151 144 154 131 119 108 97 68 79 83 76 71 73 76 87 112 110 104 102 100 92 86 87 81 85 100 71 13 14 36 25 35 27 37 38 33 23
203 210 197 181 180 202 199 187 158 63 64 107 127 108 89 70 85 85 74 68 64 72 101 120 118 121 130 137 126 120 105 80 73 2 359 38 26 35 23 29 30 29 25
205 206 197 192 186 209 211 184 107 92 84 71 71 99 117 104 81 101 92 75 65 65 75 95 104 113 115 135 122 104 103 109 90 31 19 26 15 14 2 22 27 29 28
213 205 194 190 189 203 202 171 131 121 99 75 69 79 105 110 83 103 103 94 84 73 71 73 73 72 70 63 70 121 105 113 77 27 24 16 4 340 323 345 8 16 16
215 212 194 191 189 192 183 165 142 139 119 108 90 77 90 105 98 108 117 115 104 85 90 82 65 53 52 51 48 54 78 94 81 40 19 360 357 347 331 348 350 0 2
Height
1532 1532 1533 1533 1533 1536 1538 1537 1536 1535 1534 1534 1534 1535 1535 1535 1534 1533 1533 1533 1533 1533 1533 1534 1534 1535 1536 1536 1537 1538 1539 1540 1541 1541 1542 1543 1545 1547 1548 1550 1551 1553 1556
1529 1528 1528 1529 1531 1533 1535 1533 1531 1529 1529 1530 1529 1529 1531 1531 1531 1530 1529 1528 1528 1528 1528 1529 1530 1530 1531 1533 1534 1534 1535 1535 1536 1537 1537 1538 1540 1542 1543 1545 1547 1549 1551
1524 1523 1523 1524 1526 1525 1525 1525 1523 1522 1523 1523 1523 1523 1524 1526 1525 1525 1525 1524 1524 1524 1524 1525 1526 1526 1527 1527 1529 1530 1531 1531 1531 1532 1532 1533 1534 1536 1538 1539 1541 1543 1546
1520 1521 1520 1519 1520 1520 1518 1518 1517 1516 1517 1515 1515 1517 1519 1520 1519 1519 1519 1520 1520 1520 1519 1520 1521 1522 1522 1522 1523 1524 1525 1526 1526 1526 1527 1528 1529 1531 1532 1534 1535 1538 1540
1514 1515 1513 1510 1510 1511 1510 1510 1508 1508 1506 1506 1507 1509 1512 1513 1513 1513 1513 1514 1514 1514 1514 1514 1515 1516 1517 1517 1517 1517 1518 1519 1519 1520 1520 1521 1523 1525 1527 1529 1530 1532 1534
1510 1508 1506 1503 1501 1500 1500 1501 1501 1500 1499 1500 1501 1503 1504 1505 1505 1506 1506 1507 1507 1507 1508 1508 1508 1508 1509 1510 1509 1509 1510 1511 1511 1512 1513 1515 1517 1519 1520 1522 1524 1526 1529
1504 1502 1500 1497 1495 1493 1491 1491 1492 1492 1492 1494 1495 1494 1496 1497 1497 1498 1499 1499 1500 1500 1500 1500 1499 1499 1499 1499 1499 1499 1500 1502 1504 1506 1508 1509 1510 1512 1513 1515 1517 1520 1523
1500 1496 1494 1492 1491 1488 1486 1486 1485 1484 1484 1486 1488 1488 1488 1490 1489 1490 1491 1492 1492 1492 1492 1492 1491 1490 1490 1489 1489 1491 1492 1495 1497 1499 1501 1502 1503 1505 1506 1508 1510 1513 1516
1494 1491 1488 1486 1484 1482 1480 1479 1479 1478 1477 1478 1480 1483 1482 1481 1482 1483 1483 1484 1484 1485 1486 1484 1483 1482 1482 1482 1482 1483 1485 1489 1490 1492 1493 1495 1496 1498 1499 1501 1504 1507 1510
1489 1485 1481 1479 1477 1474 1472 1470 1470 1470 1471 1471 1472 1474 1475 1476 1476 1475 1476 1477 1478 1479 1479 1478 1478 1477 1476 1476 1477 1476 1478 1482 1484 1484 1485 1487 1488 1490 1493 1495 1497 1500 1503
1483 1478 1474 1471 1469 1466 1464 1462 1462 1463 1463 1464 1465 1466 1466 1467 1468 1469 1469 1470 1472 1474 1474 1474 1474 1474 1473 1472 1473 1473 1475 1476 1477 1478 1479 1481 1482 1483 1485 1488 1490 1493 1496
1476 1471 1468 1466 1463 1461 1458 1456 1456 1457 1457 1457 1458 1458 1459 1460 1461 1462 1463 1464 1466 1468 1469 1469 1469 1468 1468 1467 1469 1470 1473 1473 1473 1473 1474 1476 1477 1478 1479 1482 1484 1486 1489
1470 1467 1465 1462 1458 1455 1454 1452 1451 1451 1450 1450 1450 1451 1453 1454 1455 1456 1457 1458 1460 1462 1464 1465 1465 1465 1465 1466 1467 1470 1472 1471 1471 1470 1471 1472 1473 1474 1475 1477 1479 1481 1483
1468 1464 1461 1458 1455 1451 1448 1447 1446 1444 1444 1443 1444 1445 1446 1446 1447 1449 1450 1454 1456 1458 1460 1461 1462 1464 1464 1466 1468 1469 1469 1469 1468 1468 1469 1469 1470 1471 1472 1474 1475 1477 1479
1466 1463 1460 1456 1452 1448 1444 1442 1441 1440 1438 1438 1438 1437 1437 1436 1438 1440 1443 1446 1451 1453 1455 1457 1460 1462 1464 1466 1468 1466 1467 1467 1466 1466 1467 1467 1468 1469 1469 1470 1472 1473 1475
1463 1460 1458 1454 1450 1445 1441 1438 1436 1435 1433 1433 1432 1430 1429 1428 1429 1431 1435 1440 1443 1446 1451 1456 1458 1460 1463 1464 1467 1468 1466 1465 1465 1465 1465 1464 1465 1467 1468 1469 1471 1472 1473
1461 1458 1455 1451 1448 1443 1438 1434 1432 1430 1429 1428 1427 1425 1424 1424 1424 1426 1430 1436 1441 1444 1448 1453 1457 1461 1462 1465 1467 1467 1465 1464 1463 1463 1462 1462 1463 1465 1467 1469 1470 1470 1470
1460 1457 1453 1450 1447 1443 1438 1434 1432 1429 1429 1428 1426 1426 1425 1424 1424 1426 1430 1435 1440 1444 1447 1451 1457 1460 1463 1466 1467 1467 1466 1463 1462 1461 1461 1462 1463 1464 1466 1468 1469 1468 1468
1457 1455 1451 1447 1447 1443 1438 1435 1434 1431 1431 1430 1428 1429 1428 1429 1428 1431 1435 1438 1441 1444 1448 1452 1456 1459 1462 1465 1467 1467 1465 1465 1464 1464 1464 1464 1464 1465 1466 1467 1467 1466 1467
1454 1453 1449 1446 1446 1445 1441 1438 1437 1435 1434 1434 1433 1432 1431 1431 1432 1435 1438 1441 1443 1446 1449 1453 1456 1459 1462 1463 1465 1466 1468 1468 1466 1466 1466 1466 1466 1466 1467 1466 1465 1465 1465
1450 1450 1447 1445 1446 1445 1442 1439 1439 1437 1435 1436 1438 1436 1435 1435 1436 1439 1442 1442 1444 1449 1451 1453 1456 1460 1462 1463 1465 1467 1468 1468 1468 1468 1467 1467 1467 1466 1467 1466 1465 1464 1463
1447 1446 1445 1444 1445 1444 1443 1440 1441 1441 1438 1439 1442 1441 1440 1441 1442 1444 1445 1446 1448 1450 1453 1455 1457 1460 1463 1464 1465 1467 1469 1470 1470 1469 1468 1468 1467 1467 1466 1466 1464 1463 1463
1442 1442 1442 1442 1442 1443 1443 1441 1441 1443 1443 1444 1444 1445 1446 1446 1447 1448 1449 1450 1451 1453 1456 1458 1459 1461 1463 1464 1466 1467 1468 1469 1469 1469 1469 1468 1468 1467 1467 1466 1464 1463 1460
1436 1437 1438 1439 1440 1442 1443 1442 1442 1444 1445 1446 1446 1447 1448 1449 1450 1451 1451 1452 1453 1455 1457 1459 1461 1462 1464 1464 1465 1466 1466 1467 1468 1469 1469 1469 1468 1468 1468 1467 1465 1463 1461
1429 1431 1433 1435 1436 1438 1440 1441 1441 1445 1446 1447 1447 1448 1449 1450 1450 1451 1451 1453 1455 1456 1457 1459 1460 1461 1463 1463 1464 1464 1465 1467 1468 1469 1469 1469 1468 1467 1467 1467 1465 1462 1460
1421 1424 1425 1429 1431 1434 1437 1439 1440 1444 1445 1446 1447 1448 1449 1450 1451 1452 1453 1454 1455 1455 1457 1460 1461 1461 1462 1462 1463 1463 1465 1467 1468 1469 1469 1468 1468 1466 1466 1465 1463 1461 1459